| time (UTC) | temp F | wind direction | speed MPH | gust MPH | rain 1hr in | rain 24hr in | rain mn in | humidity % | barometer mb |
| 20260504231225 | 69 | 244 | 0.0 | 1.0 | 0.00 | 0.00 | 0.00 | 51 | 1010.0 |
| 20260504230721 | 70 | 259 | 4.0 | 6.0 | 0.00 | 0.00 | 0.00 | 51 | 1009.9 |
| 20260504230220 | 70 | 243 | 0.0 | 2.0 | 0.00 | 0.00 | 0.00 | 55 | 1009.8 |
| 20260504225718 | 72 | 295 | 0.0 | 2.0 | 0.00 | 0.00 | 0.00 | 48 | 1009.5 |
| 20260504225214 | 73 | 308 | 0.0 | 2.0 | 0.00 | 0.00 | 0.00 | 46 | 1009.8 |
| 20260504224711 | 73 | 319 | 1.0 | 2.0 | 0.00 | 0.00 | 0.00 | 45 | 1009.8 |
| 20260504224209 | 71 | 104 | 0.0 | 1.0 | 0.00 | 0.00 | 0.00 | 47 | 1010.0 |
| 20260504223705 | 70 | 258 | 0.0 | 3.0 | 0.00 | 0.00 | 0.00 | 49 | 1009.8 |
| 20260504223200 | 70 | 228 | 1.0 | 4.0 | 0.00 | 0.00 | 0.00 | 48 | 1010.2 |
| 20260504222658 | 71 | 273 | 7.0 | 11.0 | 0.00 | 0.00 | 0.00 | 46 | 1010.1 |
| 20260504222154 | 71 | 263 | 3.0 | 6.0 | 0.00 | 0.00 | 0.00 | 48 | 1010.2 |
| 20260504221651 | 71 | 314 | 1.0 | 7.0 | 0.00 | 0.00 | 0.00 | 46 | 1010.4 |
| 20260504221149 | 72 | 230 | 4.0 | 10.0 | 0.00 | 0.00 | 0.00 | 47 | 1010.3 |
| 20260504220645 | 73 | 253 | 6.0 | 7.0 | 0.00 | 0.00 | 0.00 | 48 | 1010.1 |
| 20260504220143 | 72 | 242 | 3.0 | 8.0 | 0.00 | 0.00 | 0.00 | 49 | 1010.1 |
| 20260504215639 | 71 | 222 | 3.0 | 3.0 | 0.00 | 0.00 | 0.00 | 47 | 1009.9 |
| 20260504215136 | 71 | 258 | 8.0 | 9.0 | 0.00 | 0.00 | 0.00 | 48 | 1009.8 |
| 20260504214632 | 71 | 221 | 5.0 | 7.0 | 0.00 | 0.00 | 0.00 | 48 | 1009.7 |
| 20260504214128 | 72 | 224 | 2.0 | 3.0 | 0.00 | 0.00 | 0.00 | 50 | 1009.8 |
| 20260504213624 | 73 | 250 | 3.0 | 6.0 | 0.00 | 0.00 | 0.00 | 47 | 1010.0 |
| 20260504213116 | 72 | 235 | 2.0 | 3.0 | 0.00 | 0.00 | 0.00 | 48 | 1009.7 |
| 20260504212612 | 71 | 278 | 4.0 | 6.0 | 0.00 | 0.00 | 0.00 | 48 | 1010.0 |
| 20260504212110 | 71 | 246 | 1.0 | 10.0 | 0.00 | 0.00 | 0.00 | 49 | 1009.9 |
| 20260504211607 | 70 | 229 | 2.0 | 4.0 | 0.00 | 0.00 | 0.00 | 49 | 1010.3 |
| 20260504211103 | 71 | 249 | 5.0 | 7.0 | 0.00 | 0.00 | 0.00 | 48 | 1010.1 |
| 20260504210601 | 71 | 264 | 5.0 | 9.0 | 0.00 | 0.00 | 0.00 | 47 | 1009.9 |
| 20260504210057 | 72 | 298 | 7.0 | 10.0 | 0.00 | 0.00 | 0.00 | 45 | 1009.9 |
| 20260504205555 | 72 | 236 | 3.0 | 9.0 | 0.00 | 0.00 | 0.00 | 45 | 1009.8 |
| 20260504205053 | 71 | 268 | 2.0 | 2.0 | 0.00 | 0.00 | 0.00 | 47 | 1009.8 |
| 20260504204550 | 71 | 264 | 4.0 | 7.0 | 0.00 | 0.00 | 0.00 | 48 | 1009.9 |
| 20260504204049 | 73 | 209 | 6.0 | 10.0 | 0.00 | 0.00 | 0.00 | 45 | 1009.9 |
| 20260504203547 | 73 | 266 | 2.0 | 4.0 | 0.00 | 0.00 | 0.00 | 45 | 1009.8 |
| 20260504203044 | 72 | 233 | 5.0 | 7.0 | 0.00 | 0.00 | 0.00 | 44 | 1009.7 |
| 20260504202539 | 71 | 246 | 1.0 | 4.0 | 0.00 | 0.00 | 0.00 | 45 | 1010.0 |
| 20260504202037 | 71 | 308 | 4.0 | 7.0 | 0.00 | 0.00 | 0.00 | 46 | 1010.0 |
| 20260504201533 | 71 | 240 | 5.0 | 9.0 | 0.00 | 0.00 | 0.00 | 47 | 1010.1 |
| 20260504201032 | 73 | 274 | 4.0 | 8.0 | 0.00 | 0.00 | 0.00 | 46 | 1009.9 |
| 20260504200527 | 73 | 266 | 3.0 | 13.0 | 0.00 | 0.00 | 0.00 | 45 | 1010.0 |
| 20260504200025 | 73 | 259 | 5.0 | 10.0 | 0.00 | 0.00 | 0.00 | 44 | 1009.9 |
| 20260504195520 | 73 | 256 | 2.0 | 8.0 | 0.00 | 0.00 | 0.00 | 44 | 1010.0 |
| 20260504195017 | 73 | 251 | 13.0 | 16.0 | 0.00 | 0.00 | 0.00 | 43 | 1010.1 |
| 20260504194514 | 74 | 300 | 9.0 | 15.0 | 0.00 | 0.00 | 0.00 | 44 | 1010.1 |
| 20260504194009 | 73 | 245 | 5.0 | 9.0 | 0.00 | 0.00 | 0.00 | 44 | 1010.0 |
| 20260504193506 | 72 | 259 | 10.0 | 11.0 | 0.00 | 0.00 | 0.00 | 45 | 1010.0 |
| 20260504193005 | 73 | 236 | 4.0 | 11.0 | 0.00 | 0.00 | 0.00 | 48 | 1009.9 |
| 20260504192502 | 71 | 275 | 2.0 | 4.0 | 0.00 | 0.00 | 0.00 | 45 | 1009.8 |
| 20260504192001 | 72 | 103 | 1.0 | 7.0 | 0.00 | 0.00 | 0.00 | 45 | 1010.3 |
| 20260504191458 | 71 | 232 | 4.0 | 11.0 | 0.00 | 0.00 | 0.00 | 49 | 1010.1 |
| 20260504190953 | 71 | 265 | 9.0 | 11.0 | 0.00 | 0.00 | 0.00 | 51 | 1010.5 |
| 20260504190449 | 71 | 223 | 4.0 | 10.0 | 0.00 | 0.00 | 0.00 | 48 | 1010.5 |
| 20260504185946 | 71 | 294 | 9.0 | 15.0 | 0.00 | 0.00 | 0.00 | 49 | 1010.4 |
| 20260504185444 | 71 | 233 | 3.0 | 15.0 | 0.00 | 0.00 | 0.00 | 46 | 1010.5 |
| 20260504184939 | 71 | 224 | 2.0 | 4.0 | 0.00 | 0.00 | 0.00 | 50 | 1010.5 |
| 20260504184436 | 71 | 258 | 9.0 | 14.0 | 0.00 | 0.00 | 0.00 | 46 | 1010.8 |
| 20260504183931 | 70 | 216 | 3.0 | 13.0 | 0.00 | 0.00 | 0.00 | 48 | 1010.9 |
| 20260504183429 | 70 | 259 | 3.0 | 4.0 | 0.00 | 0.00 | 0.00 | 48 | 1010.9 |
| 20260504182927 | 69 | 148 | 5.0 | 11.0 | 0.00 | 0.00 | 0.00 | 48 | 1011.0 |
| 20260504182423 | 69 | 214 | 5.0 | 15.0 | 0.00 | 0.00 | 0.00 | 49 | 1011.1 |
| 20260504181921 | 69 | 219 | 2.0 | 10.0 | 0.00 | 0.00 | 0.00 | 49 | 1011.2 |
| 20260504181418 | 69 | 248 | 6.0 | 14.0 | 0.00 | 0.00 | 0.00 | 51 | 1010.9 |
| 20260504180916 | 69 | 224 | 5.0 | 10.0 | 0.00 | 0.00 | 0.00 | 53 | 1011.0 |
| 20260504180415 | 69 | 288 | 14.0 | 16.0 | 0.00 | 0.00 | 0.00 | 53 | 1011.2 |
| 20260504175912 | 68 | 255 | 10.0 | 14.0 | 0.00 | 0.00 | 0.00 | 51 | 1011.4 |
| 20260504175409 | 69 | 289 | 6.0 | 13.0 | 0.00 | 0.00 | 0.00 | 56 | 1011.4 |
| 20260504174907 | 68 | 213 | 4.0 | 14.0 | 0.00 | 0.00 | 0.00 | 52 | 1011.5 |
| 20260504174404 | 68 | 319 | 4.0 | 10.0 | 0.00 | 0.00 | 0.00 | 52 | 1011.3 |
| 20260504173902 | 67 | 275 | 7.0 | 11.0 | 0.00 | 0.00 | 0.00 | 52 | 1011.6 |
| 20260504173358 | 69 | 281 | 4.0 | 6.0 | 0.00 | 0.00 | 0.00 | 56 | 1011.5 |
| 20260504172855 | 67 | 282 | 7.0 | 13.0 | 0.00 | 0.00 | 0.00 | 53 | 1011.5 |
| 20260504172351 | 67 | 94 | 4.0 | 15.0 | 0.00 | 0.00 | 0.00 | 51 | 1011.5 |
| 20260504171847 | 67 | 111 | 2.0 | 9.0 | 0.00 | 0.00 | 0.00 | 51 | 1011.6 |
| 20260504171345 | 69 | 224 | 4.0 | 4.0 | 0.00 | 0.00 | 0.00 | 54 | 1011.6 |
| 20260504170842 | 68 | 207 | 1.0 | 9.0 | 0.00 | 0.00 | 0.00 | 52 | 1012.1 |
| 20260504170338 | 68 | 238 | 8.0 | 10.0 | 0.00 | 0.00 | 0.00 | 55 | 1012.2 |
| 20260504160257 | 66 | 224 | 5.0 | 9.0 | 0.00 | 0.00 | 0.00 | 51 | 1012.9 |
| 20260504150722 | 66 | 313 | 8.0 | 9.0 | 0.00 | 0.00 | 0.00 | 46 | 1013.3 |
| 20260504150218 | 64 | 251 | 4.0 | 7.0 | 0.00 | 0.00 | 0.00 | 51 | 1013.2 |
| 20260504141148 | 62 | 207 | 5.0 | 11.0 | 0.00 | 0.00 | 0.00 | 50 | 1013.5 |
| 20260504140645 | 62 | 270 | 4.0 | 7.0 | 0.00 | 0.00 | 0.00 | 47 | 1013.4 |
| 20260504140140 | 62 | 247 | 6.0 | 9.0 | 0.00 | 0.00 | 0.00 | 47 | 1013.6 |
| 20260504130609 | 60 | 299 | 3.0 | 4.0 | 0.00 | 0.00 | 0.00 | 50 | 1013.5 |
| 20260504130106 | 59 | 254 | 1.0 | 4.0 | 0.00 | 0.00 | 0.00 | 53 | 1013.5 |
| 20260504110457 | 44 | 183 | 0.0 | 0.0 | 0.00 | 0.00 | 0.00 | 93 | 1014.3 |
| 20260504100418 | 44 | 183 | 0.0 | 0.0 | 0.00 | 0.00 | 0.00 | 94 | 1014.4 |
| 20260504081811 | 45 | 2 | 0.0 | 0.0 | 0.00 | 0.00 | 0.00 | 89 | 1015.2 |
| 20260504081308 | 45 | 2 | 0.0 | 0.0 | 0.00 | 0.00 | 0.00 | 89 | 1015.3 |
| 20260504080804 | 45 | 2 | 0.0 | 0.0 | 0.00 | 0.00 | 0.00 | 89 | 1015.2 |
| 20260504080301 | 45 | 16 | 0.0 | 0.0 | 0.00 | 0.00 | 0.00 | 89 | 1015.2 |
| 20260504070228 | 44 | 251 | 0.0 | 0.0 | 0.00 | 0.00 | 0.00 | 88 | 1015.2 |
| 20260504060149 | 44 | 251 | 0.0 | 0.0 | 0.00 | 0.00 | 0.00 | 87 | 1015.6 |
| 20260504050617 | 44 | 251 | 0.0 | 0.0 | 0.00 | 0.00 | 0.00 | 87 | 1015.6 |
| 20260504050114 | 44 | 251 | 0.0 | 0.0 | 0.00 | 0.00 | 0.00 | 87 | 1015.7 |
| 20260504045611 | 44 | 251 | 0.0 | 0.0 | 0.00 | 0.00 | 0.00 | 87 | 1015.6 |
| 20260504045106 | 44 | 251 | 0.0 | 0.0 | 0.00 | 0.00 | 0.00 | 86 | 1015.3 |
| 20260504044604 | 43 | 251 | 0.0 | 0.0 | 0.00 | 0.00 | 0.00 | 86 | 1015.7 |
| 20260504044100 | 44 | 251 | 0.0 | 0.0 | 0.00 | 0.00 | 0.00 | 86 | 1015.7 |
| 20260504043558 | 44 | 251 | 0.0 | 0.0 | 0.00 | 0.00 | 0.00 | 85 | 1015.6 |
| 20260504043055 | 44 | 251 | 0.0 | 0.0 | 0.00 | 0.00 | 0.00 | 85 | 1015.5 |
| 20260504042552 | 44 | 251 | 0.0 | 0.0 | 0.00 | 0.00 | 0.00 | 85 | 1015.7 |
| 20260504042044 | 44 | 251 | 0.0 | 0.0 | 0.00 | 0.00 | 0.00 | 85 | 1015.8 |
| 20260504041539 | 44 | 251 | 0.0 | 0.0 | 0.00 | 0.00 | 0.00 | 84 | 1015.6 |
| 20260504041036 | 44 | 251 | 0.0 | 0.0 | 0.00 | 0.00 | 0.00 | 85 | 1015.5 |
| 20260504040533 | 44 | 251 | 0.0 | 0.0 | 0.00 | 0.00 | 0.00 | 85 | 1015.6 |
| 20260504040030 | 44 | 251 | 0.0 | 0.0 | 0.00 | 0.00 | 0.00 | 85 | 1015.8 |
| 20260504035526 | 44 | 251 | 0.0 | 0.0 | 0.00 | 0.00 | 0.00 | 85 | 1015.7 |
| 20260504035023 | 43 | 251 | 0.0 | 0.0 | 0.00 | 0.00 | 0.00 | 85 | 1015.7 |
| 20260504034521 | 43 | 251 | 0.0 | 0.0 | 0.00 | 0.00 | 0.00 | 86 | 1015.9 |
| 20260504034018 | 43 | 251 | 0.0 | 0.0 | 0.00 | 0.00 | 0.00 | 86 | 1015.8 |
| 20260504033516 | 43 | 251 | 0.0 | 0.0 | 0.00 | 0.00 | 0.00 | 85 | 1015.7 |
| 20260504033013 | 43 | 251 | 0.0 | 0.0 | 0.00 | 0.00 | 0.00 | 85 | 1015.9 |
| 20260504032509 | 43 | 251 | 0.0 | 0.0 | 0.00 | 0.00 | 0.00 | 85 | 1015.8 |
| 20260504032006 | 42 | 251 | 0.0 | 0.0 | 0.00 | 0.00 | 0.00 | 86 | 1015.6 |
| 20260504031503 | 42 | 251 | 0.0 | 0.0 | 0.00 | 0.00 | 0.00 | 87 | 1015.8 |
| 20260504030959 | 42 | 251 | 0.0 | 0.0 | 0.00 | 0.00 | 0.00 | 87 | 1015.8 |
| 20260504030457 | 41 | 251 | 0.0 | 0.0 | 0.00 | 0.00 | 0.00 | 88 | 1015.9 |
| 20260504025952 | 41 | 251 | 0.0 | 0.0 | 0.00 | 0.00 | 0.00 | 88 | 1015.8 |
| 20260504025450 | 40 | 251 | 0.0 | 0.0 | 0.00 | 0.00 | 0.00 | 89 | 1015.9 |
| 20260504024947 | 41 | 251 | 0.0 | 0.0 | 0.00 | 0.00 | 0.00 | 88 | 1015.7 |
| 20260504024444 | 41 | 251 | 0.0 | 0.0 | 0.00 | 0.00 | 0.00 | 88 | 1016.0 |
| 20260504023940 | 40 | 251 | 0.0 | 0.0 | 0.00 | 0.00 | 0.00 | 88 | 1016.2 |
| 20260504023437 | 41 | 251 | 0.0 | 0.0 | 0.00 | 0.00 | 0.00 | 88 | 1016.0 |
| 20260504022933 | 41 | 251 | 0.0 | 0.0 | 0.00 | 0.00 | 0.00 | 87 | 1016.0 |
| 20260504022429 | 42 | 251 | 0.0 | 0.0 | 0.00 | 0.00 | 0.00 | 87 | 1015.8 |
| 20260504021925 | 42 | 251 | 0.0 | 0.0 | 0.00 | 0.00 | 0.00 | 86 | 1016.0 |
| 20260504021423 | 42 | 251 | 0.0 | 0.0 | 0.00 | 0.00 | 0.00 | 86 | 1015.8 |
| 20260504020920 | 42 | 251 | 0.0 | 0.0 | 0.00 | 0.00 | 0.00 | 85 | 1015.9 |
| 20260504020417 | 43 | 251 | 0.0 | 0.0 | 0.00 | 0.00 | 0.00 | 85 | 1015.9 |
| 20260504015914 | 44 | 251 | 0.0 | 0.0 | 0.00 | 0.00 | 0.00 | 86 | 1015.6 |
| 20260504015409 | 44 | 251 | 0.0 | 0.0 | 0.00 | 0.00 | 0.00 | 85 | 1015.9 |
| 20260504014906 | 44 | 251 | 0.0 | 0.0 | 0.00 | 0.00 | 0.00 | 84 | 1016.0 |
| 20260504014402 | 45 | 251 | 0.0 | 0.0 | 0.00 | 0.00 | 0.00 | 83 | 1015.8 |
| 20260504013859 | 45 | 251 | 0.0 | 0.0 | 0.00 | 0.00 | 0.00 | 83 | 1016.0 |
| 20260504013357 | 45 | 251 | 0.0 | 0.0 | 0.00 | 0.00 | 0.00 | 83 | 1015.8 |
| 20260504012853 | 45 | 251 | 0.0 | 0.0 | 0.00 | 0.00 | 0.00 | 82 | 1015.8 |
| 20260504012351 | 46 | 251 | 0.0 | 0.0 | 0.00 | 0.00 | 0.00 | 83 | 1015.6 |
| 20260504011848 | 45 | 251 | 0.0 | 0.0 | 0.00 | 0.00 | 0.00 | 79 | 1015.8 |
| 20260504011344 | 45 | 251 | 0.0 | 0.0 | 0.00 | 0.00 | 0.00 | 82 | 1015.8 |
| 20260504010840 | 46 | 251 | 0.0 | 0.0 | 0.00 | 0.00 | 0.00 | 80 | 1015.6 |
| 20260504010336 | 46 | 251 | 0.0 | 0.0 | 0.00 | 0.00 | 0.00 | 81 | 1015.8 |
| 20260504005833 | 46 | 251 | 0.0 | 0.0 | 0.00 | 0.00 | 0.00 | 82 | 1015.6 |
| 20260504005330 | 46 | 251 | 0.0 | 0.0 | 0.00 | 0.00 | 0.00 | 81 | 1015.4 |
| 20260504004827 | 46 | 251 | 0.0 | 0.0 | 0.00 | 0.00 | 0.00 | 81 | 1015.6 |
| 20260504004325 | 47 | 251 | 0.0 | 0.0 | 0.00 | 0.00 | 0.00 | 80 | 1015.4 |
| 20260504003821 | 47 | 251 | 0.0 | 0.0 | 0.00 | 0.00 | 0.00 | 79 | 1015.2 |
| 20260504003318 | 47 | 251 | 0.0 | 0.0 | 0.00 | 0.00 | 0.00 | 76 | 1015.3 |
| 20260504002814 | 48 | 251 | 0.0 | 0.0 | 0.00 | 0.00 | 0.00 | 76 | 1015.4 |
| 20260504002311 | 48 | 251 | 0.0 | 0.0 | 0.00 | 0.00 | 0.00 | 74 | 1015.2 |
| 20260504001809 | 49 | 251 | 0.0 | 0.0 | 0.00 | 0.00 | 0.00 | 74 | 1015.4 |
| 20260504001306 | 49 | 251 | 0.0 | 0.0 | 0.00 | 0.00 | 0.00 | 73 | 1015.3 |
| 20260504000803 | 50 | 251 | 0.0 | 0.0 | 0.00 | 0.00 | 0.00 | 73 | 1015.6 |
| 20260504000300 | 50 | 251 | 0.0 | 0.0 | 0.00 | 0.00 | 0.00 | 69 | 1015.3 |
| 20260503235758 | 51 | 250 | 0.0 | 0.0 | 0.00 | 0.00 | 0.00 | 67 | 1015.2 |
| 20260503235255 | 51 | 251 | 0.0 | 0.0 | 0.00 | 0.00 | 0.00 | 62 | 1015.5 |
| 20260503234753 | 52 | 251 | 0.0 | 0.0 | 0.00 | 0.00 | 0.00 | 64 | 1015.4 |
| 20260503234250 | 53 | 268 | 0.0 | 0.0 | 0.00 | 0.00 | 0.00 | 63 | 1015.4 |
| 20260503233747 | 53 | 269 | 0.0 | 0.0 | 0.00 | 0.00 | 0.00 | 54 | 1015.5 |
| 20260503233243 | 54 | 268 | 0.0 | 0.0 | 0.00 | 0.00 | 0.00 | 48 | 1015.4 |
| 20260503232735 | 55 | 271 | 1.0 | 3.0 | 0.00 | 0.00 | 0.00 | 51 | 1015.6 |
| 20260503232232 | 56 | 256 | 0.0 | 1.0 | 0.00 | 0.00 | 0.00 | 43 | 1015.5 |
| 20260503231730 | 57 | 262 | 2.0 | 2.0 | 0.00 | 0.00 | 0.00 | 37 | 1015.4 |